| time (UTC) | temp C | wind direction | speed KPH | gust KPH | rain 1hr cm | rain 24hr cm | rain mn cm | humidity % | barometer mb |
| 20260904130503 | 28 | 40 | 3.2 | 17.7 | 0.00 | 1.17 | 0.00 | 81 | 1012.4 |
| 20260904130003 | 28 | 46 | 4.8 | 16.1 | 0.00 | 1.17 | 0.00 | 81 | 1012.4 |
| 20260904125503 | 28 | 49 | 4.8 | 16.1 | 0.00 | 1.17 | 0.00 | 81 | 1012.3 |
| 20260904125004 | 28 | 66 | 8.0 | 16.1 | 0.00 | 1.17 | 0.00 | 81 | 1012.2 |
| 20260904124503 | 28 | 66 | 8.0 | 16.1 | 0.00 | 1.17 | 0.00 | 81 | 1012.3 |
| 20260904124001 | 28 | 30 | 4.8 | 11.3 | 0.00 | 1.17 | 0.00 | 81 | 1012.2 |
| 20260904123505 | 28 | 50 | 4.8 | 11.3 | 0.00 | 1.17 | 0.00 | 81 | 1012.1 |
| 20260904123003 | 28 | 39 | 6.4 | 12.9 | 0.00 | 1.17 | 0.00 | 81 | 1012.1 |
| 20260904122506 | 28 | 45 | 3.2 | 11.3 | 0.00 | 1.17 | 0.00 | 81 | 1012.1 |
| 20260904122002 | 28 | 61 | 4.8 | 9.7 | 0.00 | 1.17 | 0.00 | 81 | 1012.1 |
| 20260904121502 | 28 | 34 | 4.8 | 9.7 | 0.00 | 1.17 | 0.00 | 81 | 1012.0 |
| 20260904121002 | 28 | 57 | 3.2 | 12.9 | 0.00 | 1.17 | 0.00 | 80 | 1012.0 |
| 20260904120501 | 28 | 22 | 3.2 | 12.9 | 0.00 | 1.17 | 0.00 | 80 | 1012.1 |
| 20260904120001 | 28 | 50 | 6.4 | 12.9 | 0.00 | 1.17 | 0.00 | 80 | 1012.0 |
| 20260904115501 | 28 | 65 | 4.8 | 11.3 | 0.00 | 1.17 | 0.00 | 80 | 1012.0 |
| 20260904115103 | 28 | 26 | 4.8 | 11.3 | 0.00 | 1.17 | 0.00 | 80 | 1012.0 |
| 20260904115001 | 28 | 39 | 4.8 | 11.3 | 0.00 | 1.17 | 0.00 | 80 | 1012.0 |
| 20260904114601 | 28 | 51 | 4.8 | 11.3 | 0.00 | 1.17 | 0.00 | 80 | 1012.0 |
| 20260904114059 | 28 | 53 | 4.8 | 11.3 | 0.00 | 1.17 | 0.00 | 80 | 1011.9 |
| 20260904113601 | 28 | 39 | 6.4 | 16.1 | 0.00 | 1.17 | 0.00 | 80 | 1011.9 |
| 20260904113101 | 28 | 55 | 8.0 | 16.1 | 0.00 | 1.17 | 0.00 | 80 | 1011.9 |
| 20260904112558 | 28 | 38 | 6.4 | 14.5 | 0.00 | 1.17 | 0.00 | 80 | 1012.0 |
| 20260904112101 | 28 | 61 | 3.2 | 16.1 | 0.00 | 1.17 | 0.00 | 80 | 1012.0 |
| 20260904111558 | 28 | 53 | 8.0 | 17.7 | 0.00 | 1.17 | 0.00 | 80 | 1012.0 |
| 20260904111058 | 28 | 57 | 8.0 | 17.7 | 0.00 | 1.17 | 0.00 | 80 | 1012.0 |
| 20260904110558 | 28 | 68 | 8.0 | 17.7 | 0.00 | 1.17 | 0.00 | 80 | 1011.9 |
| 20260904110058 | 28 | 55 | 9.7 | 16.1 | 0.00 | 4.75 | 0.00 | 80 | 1011.9 |
| 20260904105558 | 28 | 32 | 6.4 | 14.5 | 0.00 | 4.75 | 0.00 | 80 | 1012.0 |
| 20260904105057 | 28 | 38 | 6.4 | 16.1 | 0.00 | 4.75 | 0.00 | 80 | 1011.9 |
| 20260904104558 | 28 | 39 | 8.0 | 14.5 | 0.00 | 4.75 | 0.00 | 80 | 1011.9 |
| 20260904104056 | 28 | 57 | 6.4 | 14.5 | 0.00 | 4.75 | 0.00 | 80 | 1011.9 |
| 20260904103557 | 28 | 46 | 4.8 | 14.5 | 0.00 | 4.75 | 0.00 | 80 | 1011.9 |
| 20260904103056 | 28 | 49 | 8.0 | 14.5 | 0.00 | 4.75 | 0.00 | 80 | 1011.9 |
| 20260904102556 | 28 | 32 | 8.0 | 16.1 | 0.00 | 4.75 | 0.00 | 80 | 1012.0 |
| 20260904102055 | 28 | 46 | 8.0 | 17.7 | 0.00 | 4.75 | 0.00 | 80 | 1012.0 |
| 20260904101556 | 28 | 40 | 8.0 | 17.7 | 0.00 | 4.75 | 0.00 | 79 | 1011.9 |
| 20260904101055 | 28 | 38 | 9.7 | 19.3 | 0.00 | 4.75 | 0.00 | 79 | 1012.0 |
| 20260904100554 | 28 | 57 | 9.7 | 19.3 | 0.00 | 4.75 | 0.00 | 79 | 1012.0 |
| 20260904095555 | 28 | 36 | 8.0 | 17.7 | 0.00 | 4.75 | 0.00 | 79 | 1012.1 |
| 20260904095052 | 28 | 63 | 8.0 | 17.7 | 0.00 | 4.75 | 0.00 | 79 | 1012.2 |
| 20260904094552 | 28 | 33 | 6.4 | 14.5 | 0.00 | 4.75 | 0.00 | 79 | 1012.2 |
| 20260904094052 | 28 | 16 | 6.4 | 14.5 | 0.00 | 4.75 | 0.00 | 79 | 1012.2 |
| 20260904093556 | 28 | 67 | 6.4 | 16.1 | 0.00 | 4.75 | 0.00 | 79 | 1012.1 |
| 20260904093055 | 28 | 36 | 6.4 | 16.1 | 0.00 | 4.75 | 0.00 | 79 | 1012.2 |
| 20260904092551 | 28 | 55 | 8.0 | 16.1 | 0.00 | 4.75 | 0.00 | 79 | 1012.1 |
| 20260904092051 | 28 | 30 | 6.4 | 16.1 | 0.00 | 4.75 | 0.00 | 79 | 1012.2 |
| 20260904091551 | 28 | 26 | 6.4 | 14.5 | 0.00 | 4.75 | 0.00 | 79 | 1012.2 |
| 20260904091051 | 28 | 29 | 4.8 | 11.3 | 0.00 | 4.75 | 0.00 | 79 | 1012.2 |
| 20260904090550 | 28 | 51 | 4.8 | 12.9 | 0.00 | 4.75 | 0.00 | 79 | 1012.2 |
| 20260904090053 | 28 | 59 | 3.2 | 17.7 | 0.00 | 4.75 | 0.00 | 79 | 1012.3 |
| 20260904085550 | 28 | 49 | 4.8 | 17.7 | 0.00 | 4.75 | 0.00 | 79 | 1012.3 |
| 20260904085053 | 28 | 71 | 8.0 | 14.5 | 0.00 | 4.75 | 0.00 | 79 | 1012.3 |
| 20260904084549 | 28 | 50 | 4.8 | 11.3 | 0.00 | 4.75 | 0.00 | 79 | 1012.4 |
| 20260904084048 | 28 | 42 | 4.8 | 9.7 | 0.00 | 4.75 | 0.00 | 79 | 1012.3 |
| 20260904083547 | 28 | 44 | 3.2 | 9.7 | 0.00 | 4.75 | 0.00 | 79 | 1012.5 |
| 20260904083048 | 28 | 38 | 4.8 | 9.7 | 0.00 | 4.75 | 0.00 | 79 | 1012.4 |
| 20260904082551 | 28 | 37 | 3.2 | 9.7 | 0.00 | 4.75 | 0.00 | 79 | 1012.4 |
| 20260904082046 | 28 | 54 | 6.4 | 9.7 | 0.00 | 4.75 | 0.00 | 79 | 1012.4 |
| 20260904081549 | 28 | 44 | 4.8 | 9.7 | 0.00 | 4.75 | 0.00 | 79 | 1012.5 |
| 20260904081047 | 28 | 40 | 4.8 | 11.3 | 0.00 | 4.75 | 0.00 | 79 | 1012.6 |
| 20260904080546 | 28 | 39 | 4.8 | 11.3 | 0.00 | 4.75 | 0.00 | 79 | 1012.5 |
| 20260904080051 | 28 | 44 | 4.8 | 11.3 | 0.00 | 4.75 | 0.00 | 79 | 1012.6 |
| 20260904075544 | 28 | 73 | 4.8 | 11.3 | 0.00 | 4.75 | 0.00 | 79 | 1012.7 |
| 20260904075044 | 28 | 35 | 3.2 | 9.7 | 0.00 | 4.75 | 0.00 | 79 | 1012.6 |
| 20260904074543 | 28 | 63 | 6.4 | 9.7 | 0.00 | 4.75 | 0.00 | 79 | 1012.7 |
| 20260904074043 | 28 | 38 | 4.8 | 12.9 | 0.00 | 4.75 | 0.00 | 78 | 1012.8 |
| 20260904073542 | 28 | 61 | 4.8 | 14.5 | 0.00 | 4.75 | 0.00 | 78 | 1012.8 |
| 20260904073049 | 28 | 32 | 4.8 | 14.5 | 0.00 | 4.75 | 0.00 | 78 | 1013.0 |
| 20260904072541 | 28 | 51 | 6.4 | 12.9 | 0.00 | 4.75 | 0.00 | 78 | 1013.0 |
| 20260904072041 | 28 | 38 | 4.8 | 9.7 | 0.00 | 4.75 | 0.00 | 78 | 1012.9 |
| 20260904071541 | 28 | 34 | 4.8 | 11.3 | 0.00 | 4.75 | 0.00 | 78 | 1012.9 |
| 20260904071044 | 28 | 30 | 6.4 | 14.5 | 0.00 | 4.75 | 0.00 | 78 | 1013.0 |
| 20260904070540 | 28 | 53 | 4.8 | 16.1 | 0.00 | 4.75 | 0.00 | 78 | 1013.1 |
| 20260904070040 | 28 | 28 | 8.0 | 16.1 | 0.00 | 4.75 | 4.75 | 78 | 1013.1 |
| 20260904065538 | 28 | 58 | 6.4 | 16.1 | 0.00 | 4.75 | 4.75 | 78 | 1013.1 |
| 20260904065038 | 28 | 63 | 8.0 | 14.5 | 0.00 | 4.75 | 4.75 | 78 | 1013.1 |
| 20260904064538 | 28 | 40 | 4.8 | 12.9 | 0.00 | 4.75 | 4.75 | 78 | 1013.3 |
| 20260904064041 | 28 | 73 | 4.8 | 12.9 | 0.00 | 4.75 | 4.75 | 78 | 1013.3 |
| 20260904063537 | 28 | 57 | 4.8 | 9.7 | 0.00 | 4.75 | 4.75 | 78 | 1013.4 |
| 20260904063039 | 29 | 51 | 3.2 | 9.7 | 0.00 | 4.75 | 4.75 | 78 | 1013.4 |
| 20260904062537 | 29 | 51 | 3.2 | 9.7 | 0.00 | 4.75 | 4.75 | 78 | 1013.5 |
| 20260904062036 | 29 | 78 | 3.2 | 11.3 | 0.00 | 4.75 | 4.75 | 78 | 1013.5 |
| 20260904061539 | 28 | 61 | 4.8 | 11.3 | 0.00 | 4.75 | 4.75 | 78 | 1013.5 |
| 20260904061037 | 28 | 61 | 6.4 | 12.9 | 0.00 | 4.75 | 4.75 | 78 | 1013.6 |
| 20260904060536 | 28 | 57 | 4.8 | 11.3 | 0.00 | 4.75 | 4.75 | 78 | 1013.6 |
| 20260904060036 | 28 | 51 | 4.8 | 11.3 | 0.00 | 4.75 | 4.75 | 78 | 1013.7 |
| 20260904055535 | 28 | 63 | 4.8 | 9.7 | 0.00 | 4.75 | 4.75 | 78 | 1013.9 |
| 20260904055036 | 28 | 65 | 1.6 | 11.3 | 0.00 | 4.75 | 4.75 | 78 | 1013.9 |
| 20260904054537 | 29 | 46 | 6.4 | 12.9 | 0.00 | 4.75 | 4.75 | 79 | 1014.0 |
| 20260904054034 | 29 | 64 | 4.8 | 12.9 | 0.00 | 4.75 | 4.75 | 79 | 1014.0 |
| 20260904053535 | 29 | 59 | 3.2 | 11.3 | 0.00 | 4.75 | 4.75 | 79 | 1014.0 |
| 20260904053036 | 28 | 68 | 4.8 | 11.3 | 0.00 | 4.75 | 4.75 | 79 | 1014.1 |
| 20260904052537 | 29 | 79 | 3.2 | 8.0 | 0.00 | 4.75 | 4.75 | 78 | 1014.2 |
| 20260904052035 | 29 | 44 | 3.2 | 11.3 | 0.00 | 4.75 | 4.75 | 78 | 1014.2 |
| 20260904051536 | 29 | 69 | 3.2 | 11.3 | 0.00 | 4.75 | 4.75 | 78 | 1014.2 |
| 20260904051033 | 29 | 83 | 1.6 | 9.7 | 0.00 | 4.75 | 4.75 | 78 | 1014.2 |
| 20260904050534 | 29 | 58 | 3.2 | 9.7 | 0.00 | 4.75 | 4.75 | 78 | 1014.2 |
| 20260904050042 | 29 | 67 | 4.8 | 9.7 | 0.00 | 4.75 | 4.75 | 78 | 1014.2 |
| 20260904045533 | 29 | 56 | 3.2 | 8.0 | 0.00 | 4.75 | 4.75 | 78 | 1014.3 |
| 20260904045033 | 29 | 46 | 4.8 | 9.7 | 0.00 | 4.75 | 4.75 | 78 | 1014.2 |
| 20260904044542 | 29 | 55 | 3.2 | 11.3 | 0.00 | 4.75 | 4.75 | 78 | 1014.2 |
| 20260904044033 | 29 | 44 | 4.8 | 9.7 | 0.00 | 4.75 | 4.75 | 78 | 1014.2 |
| 20260904043535 | 29 | 54 | 4.8 | 8.0 | 0.00 | 4.75 | 4.75 | 78 | 1014.1 |
| 20260904043033 | 29 | 65 | 3.2 | 9.7 | 0.00 | 4.75 | 4.75 | 77 | 1014.1 |
| 20260904042532 | 29 | 75 | 4.8 | 9.7 | 0.00 | 4.75 | 4.75 | 77 | 1014.0 |
| 20260904042033 | 29 | 53 | 4.8 | 12.9 | 0.00 | 4.75 | 4.75 | 77 | 1014.0 |
| 20260904041538 | 29 | 62 | 6.4 | 12.9 | 0.00 | 4.75 | 4.75 | 77 | 1013.9 |
| 20260904041032 | 29 | 40 | 3.2 | 9.7 | 0.00 | 4.75 | 4.75 | 77 | 1013.8 |
| 20260904040531 | 29 | 82 | 4.8 | 11.3 | 0.00 | 4.75 | 4.75 | 77 | 1013.6 |
| 20260904040033 | 29 | 33 | 4.8 | 9.7 | 0.00 | 4.75 | 4.75 | 76 | 1013.7 |
| 20260904035532 | 29 | 94 | 4.8 | 11.3 | 0.00 | 4.75 | 4.75 | 76 | 1013.7 |
| 20260904035033 | 29 | 56 | 4.8 | 11.3 | 0.00 | 4.75 | 4.75 | 76 | 1013.5 |
| 20260904034531 | 29 | 53 | 3.2 | 8.0 | 0.00 | 4.75 | 4.75 | 76 | 1013.5 |
| 20260904034033 | 29 | 78 | 3.2 | 14.5 | 0.00 | 4.75 | 4.75 | 75 | 1013.3 |
| 20260904033534 | 29 | 63 | 4.8 | 14.5 | 0.00 | 4.75 | 4.75 | 75 | 1013.3 |
| 20260904033033 | 29 | 103 | 4.8 | 16.1 | 0.00 | 4.75 | 4.75 | 75 | 1013.2 |
| 20260904032529 | 29 | 94 | 6.4 | 16.1 | 0.00 | 4.75 | 4.75 | 76 | 1013.1 |
| 20260904032030 | 29 | 74 | 6.4 | 14.5 | 0.00 | 4.75 | 4.75 | 75 | 1013.2 |
| 20260904031532 | 29 | 65 | 3.2 | 12.9 | 0.00 | 4.75 | 4.75 | 76 | 1013.1 |
| 20260904031030 | 29 | 38 | 4.8 | 11.3 | 0.00 | 4.75 | 4.75 | 76 | 1013.1 |
| 20260904030529 | 29 | 56 | 1.6 | 8.0 | 0.00 | 4.75 | 4.75 | 75 | 1013.0 |
| 20260904030030 | 29 | 62 | 3.2 | 9.7 | 0.00 | 4.75 | 4.75 | 75 | 1012.9 |
| 20260904025529 | 29 | 64 | 4.8 | 12.9 | 0.00 | 4.75 | 4.75 | 75 | 1012.9 |
| 20260904025029 | 29 | 97 | 6.4 | 12.9 | 0.00 | 4.75 | 4.75 | 75 | 1012.7 |
| 20260904024528 | 29 | 74 | 6.4 | 12.9 | 0.00 | 4.75 | 4.75 | 75 | 1012.7 |
| 20260904024028 | 29 | 71 | 3.2 | 6.4 | 0.00 | 4.75 | 4.75 | 74 | 1012.6 |
| 20260904023532 | 29 | 69 | 1.6 | 9.7 | 0.00 | 4.75 | 4.75 | 74 | 1012.5 |
| 20260904023027 | 29 | 71 | 3.2 | 9.7 | 0.00 | 4.75 | 4.75 | 74 | 1012.6 |
| 20260904022528 | 29 | 82 | 6.4 | 9.7 | 0.00 | 4.75 | 4.75 | 74 | 1012.6 |
| 20260904022027 | 29 | 74 | 4.8 | 8.0 | 0.00 | 4.75 | 4.75 | 74 | 1012.7 |
| 20260904021531 | 29 | 74 | 3.2 | 9.7 | 0.00 | 4.75 | 4.75 | 74 | 1012.6 |
| 20260904021028 | 29 | 76 | 4.8 | 9.7 | 0.00 | 4.75 | 4.75 | 73 | 1012.6 |
| 20260904020527 | 29 | 76 | 1.6 | 6.4 | 0.00 | 4.75 | 4.75 | 73 | 1012.6 |
| 20260904020038 | 29 | 76 | 1.6 | 6.4 | 0.00 | 4.75 | 4.75 | 74 | 1012.7 |
| 20260904015526 | 29 | 74 | 1.6 | 6.4 | 0.00 | 4.75 | 4.75 | 74 | 1012.7 |
| 20260904015026 | 30 | 95 | 1.6 | 4.8 | 0.00 | 4.75 | 4.75 | 75 | 1012.7 |
| 20260904014526 | 29 | 96 | 0.0 | 0.0 | 0.00 | 4.75 | 4.75 | 75 | 1012.6 |
| 20260904014025 | 29 | 96 | 0.0 | 0.0 | 0.00 | 4.75 | 4.75 | 76 | 1012.7 |
| 20260904013524 | 29 | 96 | 0.0 | 4.8 | 0.00 | 4.75 | 4.75 | 76 | 1012.6 |
| 20260904013026 | 30 | 96 | 0.0 | 4.8 | 0.00 | 4.75 | 4.75 | 76 | 1012.7 |
| 20260904012525 | 30 | 96 | 0.0 | 6.4 | 0.00 | 4.75 | 4.75 | 76 | 1012.7 |
| 20260904012025 | 30 | 96 | 1.6 | 6.4 | 0.00 | 4.75 | 4.75 | 76 | 1012.7 |
| 20260904011525 | 30 | 95 | 3.2 | 4.8 | 0.00 | 4.75 | 4.75 | 77 | 1012.8 |
| 20260904011025 | 30 | 54 | 0.0 | 4.8 | 0.00 | 4.75 | 4.75 | 77 | 1012.9 |
| 20260904010525 | 30 | 54 | 0.0 | 4.8 | 0.00 | 4.75 | 4.75 | 77 | 1012.9 |
| 20260904010025 | 30 | 54 | 1.6 | 4.8 | 0.00 | 4.75 | 4.75 | 78 | 1012.9 |
| 20260904005524 | 30 | 54 | 1.6 | 3.2 | 0.00 | 4.75 | 4.75 | 78 | 1012.9 |
| 20260904005024 | 29 | 54 | 0.0 | 4.8 | 0.00 | 4.75 | 4.75 | 79 | 1012.7 |
| 20260904004523 | 29 | 54 | 1.6 | 4.8 | 0.00 | 4.75 | 4.75 | 79 | 1012.8 |
| 20260904004024 | 29 | 32 | 0.0 | 4.8 | 0.00 | 4.75 | 4.75 | 79 | 1012.8 |
| 20260904003522 | 29 | 32 | 1.6 | 8.0 | 0.00 | 4.75 | 4.75 | 79 | 1012.8 |
| 20260904003027 | 29 | 32 | 3.2 | 8.0 | 0.00 | 4.75 | 4.75 | 79 | 1012.7 |
| 20260904002524 | 28 | 48 | 4.8 | 6.4 | 0.00 | 4.75 | 4.75 | 79 | 1012.7 |
| 20260904002022 | 28 | 49 | 1.6 | 6.4 | 0.00 | 4.75 | 4.75 | 79 | 1012.7 |
| 20260904001522 | 28 | 39 | 3.2 | 6.4 | 0.00 | 4.75 | 4.75 | 79 | 1012.7 |
| 20260904001025 | 28 | 87 | 1.6 | 9.7 | 0.00 | 4.75 | 4.75 | 79 | 1012.7 |
| 20260904000522 | 28 | 80 | 1.6 | 9.7 | 0.00 | 4.75 | 4.75 | 79 | 1012.6 |
| 20260904000022 | 28 | 50 | 3.2 | 9.7 | 0.00 | 4.75 | 4.75 | 79 | 1012.6 |
| 20260903235522 | 28 | 65 | 4.8 | 9.7 | 0.00 | 4.75 | 4.75 | 79 | 1012.6 |
| 20260903235023 | 28 | 85 | 4.8 | 11.3 | 0.00 | 4.75 | 4.75 | 79 | 1012.4 |
| 20260903234515 | 28 | 149 | 6.4 | 11.3 | 0.00 | 4.75 | 4.75 | 79 | 1012.2 |
| 20260903234015 | 28 | 136 | 6.4 | 11.3 | 0.00 | 4.75 | 4.75 | 78 | 1012.4 |
| 20260903233516 | 28 | 124 | 4.8 | 9.7 | 0.00 | 4.75 | 4.75 | 78 | 1012.4 |
| 20260903233016 | 29 | 101 | 1.6 | 6.4 | 0.00 | 4.75 | 4.75 | 78 | 1012.3 |
| 20260903232515 | 28 | 99 | 1.6 | 11.3 | 0.00 | 4.75 | 4.75 | 78 | 1012.4 |
| 20260903232015 | 28 | 137 | 3.2 | 9.7 | 0.00 | 4.75 | 4.75 | 78 | 1012.4 |
| 20260903231515 | 28 | 96 | 3.2 | 9.7 | 0.00 | 4.75 | 4.75 | 77 | 1012.3 |
| 20260903231013 | 28 | 94 | 3.2 | 9.7 | 0.00 | 4.75 | 4.75 | 77 | 1012.3 |
| 20260903230513 | 28 | 69 | 1.6 | 9.7 | 0.00 | 4.75 | 4.75 | 78 | 1012.3 |
| 20260903230015 | 28 | 134 | 3.2 | 9.7 | 0.00 | 4.78 | 4.75 | 78 | 1012.3 |
| 20260903225513 | 28 | 117 | 1.6 | 6.4 | 0.00 | 4.78 | 4.75 | 78 | 1012.3 |
| 20260903225012 | 28 | 130 | 1.6 | 8.0 | 0.00 | 4.78 | 4.75 | 77 | 1012.4 |
| 20260903224514 | 28 | 78 | 4.8 | 9.7 | 0.00 | 4.78 | 4.75 | 77 | 1012.6 |
| 20260903224013 | 28 | 74 | 3.2 | 9.7 | 0.00 | 4.78 | 4.75 | 77 | 1012.5 |
| 20260903223514 | 28 | 65 | 1.6 | 6.4 | 0.00 | 4.78 | 4.75 | 77 | 1012.5 |
| 20260903223020 | 28 | 65 | 3.2 | 6.4 | 0.00 | 4.78 | 4.75 | 77 | 1012.6 |
| 20260903222513 | 28 | 138 | 1.6 | 8.0 | 0.00 | 4.78 | 4.75 | 76 | 1012.6 |
| 20260903222014 | 28 | 84 | 1.6 | 6.4 | 0.00 | 4.78 | 4.75 | 76 | 1012.7 |
| 20260903221510 | 28 | 150 | 3.2 | 8.0 | 0.00 | 4.78 | 4.75 | 75 | 1012.7 |
| 20260903221010 | 28 | 94 | 1.6 | 6.4 | 0.00 | 4.78 | 4.75 | 76 | 1012.7 |
| 20260903220508 | 28 | 88 | 3.2 | 6.4 | 0.00 | 4.78 | 4.75 | 76 | 1012.8 |
| 20260903220008 | 28 | 171 | 1.6 | 11.3 | 0.00 | 5.23 | 4.75 | 76 | 1012.6 |
| 20260903215506 | 28 | 157 | 4.8 | 11.3 | 0.00 | 5.23 | 4.75 | 77 | 1012.7 |
| 20260903215006 | 28 | 40 | 1.6 | 8.0 | 0.00 | 5.23 | 4.75 | 77 | 1012.6 |
| 20260903214505 | 27 | 166 | 3.2 | 8.0 | 0.00 | 5.23 | 4.75 | 79 | 1012.7 |
| 20260903214005 | 27 | 205 | 6.4 | 8.0 | 0.03 | 5.23 | 4.75 | 79 | 1012.8 |
| 20260903213505 | 27 | 127 | 3.2 | 6.4 | 0.03 | 5.23 | 4.75 | 81 | 1012.8 |
| 20260903213004 | 26 | 259 | 0.0 | 6.4 | 0.03 | 5.23 | 4.75 | 84 | 1012.8 |
| 20260903212504 | 26 | 258 | 1.6 | 6.4 | 0.03 | 5.23 | 4.75 | 87 | 1012.9 |
| 20260903212006 | 26 | 269 | 0.0 | 6.4 | 0.03 | 5.23 | 4.75 | 87 | 1013.0 |
| 20260903211503 | 26 | 38 | 0.0 | 6.4 | 0.03 | 5.23 | 4.75 | 87 | 1013.2 |
| 20260903211003 | 26 | 233 | 0.0 | 6.4 | 0.03 | 5.23 | 4.75 | 87 | 1013.4 |
| 20260903210503 | 26 | 233 | 3.2 | 6.4 | 0.03 | 5.23 | 4.75 | 87 | 1013.6 |
| 20260903210003 | 26 | 35 | 3.2 | 6.4 | 0.03 | 8.26 | 4.75 | 87 | 1013.7 |
| 20260903205502 | 26 | 89 | 0.0 | 22.5 | 0.03 | 8.26 | 4.75 | 87 | 1013.7 |
| 20260903205005 | 26 | 144 | 8.0 | 27.4 | 0.03 | 8.26 | 4.75 | 86 | 1013.9 |
| 20260903204502 | 26 | 178 | 17.7 | 35.4 | 0.03 | 8.26 | 4.75 | 84 | 1014.4 |
| 20260903204004 | 27 | 184 | 20.9 | 32.2 | 0.03 | 8.23 | 4.72 | 81 | 1014.6 |
| 20260903203503 | 28 | 165 | 9.7 | 16.1 | 0.03 | 8.23 | 4.72 | 79 | 1014.6 |
| 20260903203003 | 28 | 153 | 6.4 | 14.5 | 0.03 | 8.23 | 4.72 | 79 | 1014.8 |
| 20260903202502 | 27 | 99 | 6.4 | 11.3 | 0.03 | 8.23 | 4.72 | 81 | 1014.5 |
| 20260903202100 | 27 | 94 | 3.2 | 9.7 | 0.03 | 8.23 | 4.72 | 82 | 1014.2 |
| 20260903201600 | 27 | 132 | 3.2 | 8.0 | 0.03 | 8.23 | 4.72 | 84 | 1014.0 |
| 20260903201100 | 26 | 254 | 3.2 | 8.0 | 0.03 | 8.23 | 4.72 | 86 | 1013.9 |
| 20260903200600 | 26 | 181 | 3.2 | 8.0 | 0.03 | 8.23 | 4.72 | 88 | 1013.9 |
| 20260903200108 | 26 | 344 | 4.8 | 8.0 | 0.03 | 11.07 | 4.72 | 88 | 1013.8 |
| 20260903195559 | 26 | 328 | 1.6 | 3.2 | 0.03 | 11.07 | 4.72 | 89 | 1014.0 |
| 20260903195102 | 26 | 329 | 0.0 | 6.4 | 0.05 | 11.07 | 4.72 | 89 | 1014.1 |
| 20260903194558 | 26 | 329 | 3.2 | 8.0 | 0.05 | 11.07 | 4.72 | 89 | 1014.2 |
| 20260903194057 | 25 | 327 | 4.8 | 8.0 | 0.03 | 11.02 | 4.70 | 90 | 1014.4 |
| 20260903193557 | 25 | 311 | 0.0 | 8.0 | 0.03 | 11.02 | 4.70 | 90 | 1014.4 |
| 20260903193103 | 25 | 311 | 3.2 | 8.0 | 0.03 | 11.02 | 4.70 | 90 | 1014.4 |
| 20260903192557 | 25 | 263 | 3.2 | 6.4 | 0.03 | 11.02 | 4.70 | 90 | 1014.7 |
| 20260903192055 | 25 | 261 | 1.6 | 9.7 | 0.05 | 11.02 | 4.70 | 90 | 1014.8 |
| 20260903191602 | 25 | 261 | 4.8 | 9.7 | 0.05 | 11.02 | 4.70 | 90 | 1014.8 |
| 20260903191054 | 25 | 273 | 3.2 | 14.5 | 0.10 | 11.02 | 4.70 | 90 | 1014.9 |
| 20260903190553 | 25 | 278 | 4.8 | 14.5 | 0.20 | 11.02 | 4.70 | 90 | 1014.8 |
| 20260903190053 | 25 | 260 | 3.2 | 8.0 | 0.38 | 11.02 | 4.70 | 90 | 1014.8 |
| 20260903185551 | 25 | 224 | 3.2 | 6.4 | 0.48 | 11.02 | 4.70 | 90 | 1015.0 |
| 20260903185052 | 24 | 342 | 1.6 | 9.7 | 0.71 | 11.02 | 4.67 | 90 | 1015.1 |
| 20260903184552 | 24 | 339 | 4.8 | 9.7 | 1.02 | 11.02 | 4.67 | 90 | 1015.3 |
| 20260903184048 | 24 | 355 | 4.8 | 9.7 | 1.09 | 11.02 | 4.67 | 90 | 1015.5 |
| 20260903183547 | 24 | 346 | 3.2 | 12.9 | 1.09 | 11.02 | 4.67 | 90 | 1015.5 |
| 20260903183107 | 24 | 355 | 4.8 | 14.5 | 1.09 | 11.02 | 4.67 | 90 | 1015.7 |
| 20260903182546 | 24 | 15 | 6.4 | 14.5 | 1.09 | 11.02 | 4.67 | 90 | 1015.9 |
| 20260903182045 | 24 | 335 | 6.4 | 12.9 | 1.07 | 11.00 | 4.65 | 90 | 1015.7 |
| 20260903181547 | 23 | 355 | 4.8 | 8.0 | 1.04 | 10.97 | 4.62 | 89 | 1016.1 |
| 20260903181044 | 23 | 295 | 1.6 | 9.7 | 1.02 | 10.92 | 4.60 | 90 | 1016.5 |
| 20260903180543 | 23 | 260 | 1.6 | 12.9 | 0.91 | 10.82 | 4.50 | 89 | 1016.9 |
| 20260903180042 | 24 | 200 | 8.0 | 25.7 | 0.71 | 10.67 | 4.32 | 88 | 1017.2 |
| 20260903175541 | 24 | 167 | 16.1 | 32.2 | 0.64 | 10.57 | 4.22 | 87 | 1017.5 |
| 20260903175044 | 25 | 192 | 20.9 | 51.5 | 0.30 | 10.24 | 3.89 | 87 | 1017.5 |
| 20260903174539 | 26 | 223 | 22.5 | 57.9 | 0.05 | 9.98 | 3.63 | 85 | 1017.1 |
| 20260903174037 | 27 | 178 | 35.4 | 57.9 | 0.00 | 9.93 | 3.58 | 81 | 1017.2 |
| 20260903173538 | 30 | 141 | 24.1 | 53.1 | 0.00 | 9.93 | 3.58 | 74 | 1016.8 |
| 20260903173037 | 31 | 146 | 8.0 | 14.5 | 0.00 | 9.93 | 3.58 | 75 | 1015.8 |
| 20260903172535 | 31 | 138 | 4.8 | 11.3 | 0.00 | 9.93 | 3.58 | 75 | 1015.5 |
| 20260903172033 | 31 | 89 | 6.4 | 11.3 | 0.00 | 9.93 | 3.58 | 74 | 1015.1 |
| 20260903171532 | 31 | 97 | 3.2 | 11.3 | 0.00 | 9.93 | 3.58 | 75 | 1015.0 |
| 20260903171031 | 31 | 123 | 3.2 | 12.9 | 0.00 | 9.93 | 3.58 | 76 | 1015.0 |
| 20260903170530 | 30 | 99 | 3.2 | 12.9 | 0.00 | 9.93 | 3.58 | 77 | 1015.0 |
| 20260903170029 | 30 | 55 | 4.8 | 11.3 | 0.00 | 9.93 | 3.58 | 78 | 1015.0 |
| 20260903165528 | 29 | 212 | 0.0 | 3.2 | 0.00 | 9.93 | 3.58 | 80 | 1014.8 |
| 20260903165027 | 28 | 212 | 0.0 | 3.2 | 0.00 | 9.93 | 3.58 | 81 | 1014.6 |
| 20260903164525 | 28 | 210 | 0.0 | 9.7 | 0.00 | 9.93 | 3.58 | 81 | 1014.6 |
| 20260903164024 | 28 | 210 | 3.2 | 9.7 | 0.00 | 9.93 | 3.58 | 80 | 1014.5 |
| 20260903163523 | 28 | 263 | 3.2 | 14.5 | 0.00 | 9.93 | 3.58 | 81 | 1014.4 |
| 20260903163022 | 28 | 225 | 9.7 | 17.7 | 0.00 | 9.93 | 3.58 | 79 | 1014.4 |
| 20260903162523 | 28 | 236 | 9.7 | 19.3 | 0.00 | 9.93 | 3.58 | 77 | 1014.4 |
| 20260903162023 | 29 | 279 | 12.9 | 19.3 | 0.00 | 9.93 | 3.58 | 75 | 1014.4 |
| 20260903161531 | 30 | 349 | 4.8 | 9.7 | 0.00 | 9.93 | 3.58 | 77 | 1014.5 |
| 20260903161020 | 30 | 20 | 4.8 | 9.7 | 0.00 | 9.93 | 3.58 | 77 | 1014.6 |
| 20260903160619 | 30 | 26 | 4.8 | 8.0 | 0.00 | 9.93 | 3.58 | 77 | 1014.6 |
| 20260903160021 | 29 | 355 | 1.6 | 8.0 | 0.00 | 9.93 | 3.58 | 78 | 1015.0 |
| 20260903155520 | 29 | 355 | 1.6 | 8.0 | 0.00 | 9.93 | 3.58 | 78 | 1015.0 |
| 20260903155015 | 29 | 34 | 1.6 | 8.0 | 0.00 | 9.93 | 3.58 | 77 | 1014.9 |
| 20260903154514 | 29 | 34 | 3.2 | 8.0 | 0.00 | 9.93 | 3.58 | 78 | 1015.0 |
| 20260903154016 | 29 | 51 | 3.2 | 9.7 | 0.00 | 9.93 | 3.58 | 78 | 1015.0 |
| 20260903153512 | 29 | 42 | 3.2 | 14.5 | 0.00 | 9.93 | 3.58 | 78 | 1015.0 |
| 20260903153012 | 28 | 48 | 6.4 | 16.1 | 0.00 | 9.93 | 3.58 | 78 | 1014.8 |
| 20260903152511 | 28 | 33 | 8.0 | 19.3 | 0.00 | 9.93 | 3.58 | 78 | 1014.6 |
| 20260903152011 | 28 | 36 | 11.3 | 19.3 | 0.00 | 9.93 | 3.58 | 78 | 1014.6 |
| 20260903151509 | 28 | 47 | 6.4 | 16.1 | 0.00 | 9.93 | 3.58 | 78 | 1014.7 |
| 20260903151009 | 28 | 65 | 6.4 | 16.1 | 0.00 | 9.93 | 3.58 | 78 | 1014.6 |
| 20260903150508 | 28 | 42 | 8.0 | 19.3 | 0.00 | 9.93 | 3.58 | 77 | 1014.6 |
| 20260903150009 | 28 | 55 | 8.0 | 20.9 | 0.00 | 9.93 | 3.58 | 77 | 1014.5 |
| 20260903145507 | 28 | 58 | 9.7 | 20.9 | 0.00 | 9.93 | 3.58 | 78 | 1014.3 |
| 20260903145006 | 28 | 65 | 9.7 | 20.9 | 0.00 | 9.93 | 3.58 | 78 | 1014.1 |
| 20260903144505 | 28 | 51 | 9.7 | 24.1 | 0.00 | 9.93 | 3.58 | 79 | 1014.1 |
| 20260903144003 | 28 | 67 | 14.5 | 24.1 | 0.00 | 9.93 | 3.58 | 79 | 1014.0 |
| 20260903143503 | 28 | 43 | 8.0 | 14.5 | 0.00 | 9.93 | 3.58 | 81 | 1013.9 |
| 20260903143000 | 28 | 74 | 4.8 | 14.5 | 0.00 | 9.93 | 3.58 | 81 | 1013.7 |
| 20260903142600 | 28 | 51 | 4.8 | 14.5 | 0.00 | 9.93 | 3.58 | 81 | 1013.6 |
| 20260903142057 | 28 | 44 | 4.8 | 12.9 | 0.00 | 9.93 | 3.58 | 81 | 1013.5 |
| 20260903141557 | 28 | 41 | 4.8 | 14.5 | 0.00 | 9.93 | 3.58 | 81 | 1013.4 |
| 20260903141055 | 28 | 26 | 4.8 | 14.5 | 0.00 | 9.93 | 3.58 | 81 | 1013.4 |
| 20260903140554 | 28 | 20 | 8.0 | 19.3 | 0.00 | 9.93 | 3.58 | 81 | 1013.2 |
| 20260903140053 | 28 | 19 | 9.7 | 19.3 | 0.00 | 9.93 | 3.58 | 81 | 1013.1 |
| 20260903135551 | 28 | 51 | 6.4 | 22.5 | 0.00 | 9.93 | 3.58 | 82 | 1013.1 |
| 20260903135051 | 27 | 69 | 9.7 | 22.5 | 0.00 | 9.93 | 3.58 | 82 | 1013.1 |
| 20260903134602 | 27 | 46 | 4.8 | 20.9 | 0.00 | 9.93 | 3.58 | 82 | 1013.1 |
| 20260903134051 | 27 | 33 | 8.0 | 22.5 | 0.00 | 9.93 | 3.58 | 83 | 1013.0 |
| 20260903133547 | 27 | 46 | 8.0 | 22.5 | 0.00 | 9.93 | 3.58 | 84 | 1012.9 |
| 20260903133051 | 27 | 53 | 9.7 | 19.3 | 0.00 | 9.93 | 3.58 | 84 | 1012.8 |
| 20260903132547 | 27 | 71 | 8.0 | 19.3 | 0.00 | 9.93 | 3.58 | 85 | 1012.7 |
| 20260903132046 | 27 | 42 | 9.7 | 20.9 | 0.00 | 9.93 | 3.58 | 85 | 1012.6 |
| 20260903131547 | 27 | 39 | 12.9 | 20.9 | 0.00 | 9.93 | 3.58 | 85 | 1012.6 |
| 20260903131047 | 27 | 33 | 11.3 | 20.9 | 0.00 | 9.93 | 3.58 | 85 | 1012.6 |